Charlotte, MI

3:04 PM EDT on July 25, 2016 (GMT -0400)
Charlotte

Weather History for KFPK - May, 2013

Change the Weather History Date:

Friday, May 3, 2013

  Actual Average (KLAN) Record (KLAN)
Temperature  
Mean Temperature 67 °F 54 °F  
Max Temperature 78 °F 65 °F 88 °F (1959)
Min Temperature 56 °F 43 °F 27 °F (2004)
Degree Days  
Heating Degree Days 0 12  
Month to date heating degree days 36  
Since 1 July heating degree days 6434  
Cooling Degree Days 2 0  
Month to date cooling degree days 0  
Year to date cooling degree days 7  
Growing Degree Days 17 (Base 50)    
Moisture  
Dew Point 48 °F    
Average Humidity 53    
Maximum Humidity 74    
Minimum Humidity 33    
Precipitation  
Precipitation 0.00 in 0.11 in 1.46 in (1919)
Month to date precipitation 0.31  
Year to date precipitation 8.52  
Snow  
Snow 0.00 in 0.00 in 0.20 in (1929)
Month to date snowfall 0.0  
Since 1 July snowfall 51.1  
Snow Depth -    
Sea Level Pressure  
Sea Level Pressure 30.06 in    
Wind  
Wind Speed 7 mph (ESE)    
Max Wind Speed 17 mph    
Max Gust Speed 24 mph    
Visibility 10 miles    
Events      
T = Trace of Precipitation, MM = Missing Value Source: NWS Daily Summary

Daily Weather History Graph

Daily Weather History Graph

Search for Another Location

Airport or City:

Trip Planner

Search our weather history database for the weather conditions in past years. The results will help you decide how hot, cold, wet, or windy it might be!

Date:

Astronomy

May. 03, 2013 Rise Set
Actual Time 6:31 AM EDT 8:41 PM EDT
Civil Twilight 6:00 AM EDT 9:13 PM EDT
Nautical Twilight 5:21 AM EDT 9:51 PM EDT
Astronomical Twilight 4:39 AM EDT 10:33 PM EDT
Moon 3:03 AM EDT (5/3) 2:27 PM EDT (5/3)
Length of Visible Light 15h 13m
Length of Day
14h 10m
Last Quarter, 37% of the Moon is Illuminated
May 3
Last Quarter
May 9
New
May 18
First Quarter
May 25
Full
May 31
Last Quarter

Hourly Weather History & Observations

Time (EDT) Temp. Dew Point Humidity Pressure Visibility Wind Dir Wind Speed Gust Speed Precip Events Conditions
12:15 AM 61.3 °F 45.5 °F 56% 30.11 in 10.0 mi ESE 4.6 mph - N/A   Scattered Clouds
12:35 AM 60.8 °F 45.7 °F 57% 30.11 in 10.0 mi ESE 4.6 mph - N/A   Clear
12:55 AM 59.9 °F 46.4 °F 61% 30.11 in 10.0 mi East 4.6 mph - N/A   Clear
1:15 AM 59.9 °F 46.4 °F 61% 30.11 in 10.0 mi ESE 3.5 mph - N/A   Scattered Clouds
1:35 AM 59.9 °F 45.9 °F 60% 30.10 in 10.0 mi East 4.6 mph - N/A   Scattered Clouds
1:55 AM 59.2 °F 45.9 °F 61% 30.09 in 10.0 mi East 3.5 mph - N/A   Clear
2:15 AM 59.0 °F 46.4 °F 63% 30.09 in 10.0 mi East 3.5 mph - N/A   Scattered Clouds
2:35 AM 59.0 °F 46.4 °F 63% 30.09 in 10.0 mi East 4.6 mph - N/A   Mostly Cloudy
2:55 AM 58.3 °F 46.6 °F 65% 30.08 in 10.0 mi East 4.6 mph - N/A   Scattered Clouds
3:15 AM 57.7 °F 46.4 °F 66% 30.08 in 10.0 mi East 4.6 mph - N/A   Scattered Clouds
3:35 AM 57.6 °F 46.4 °F 66% 30.07 in 10.0 mi East 3.5 mph - N/A   Clear
4:15 AM 57.4 °F 46.4 °F 67% 30.07 in 10.0 mi Calm Calm - N/A   Clear
4:35 AM 57.4 °F 46.8 °F 68% 30.07 in 10.0 mi Calm Calm - N/A   Mostly Cloudy
4:36 AM 57.4 °F 46.8 °F 68% 30.07 in 10.0 mi Calm Calm - N/A   Mostly Cloudy
5:15 AM 57.4 °F 47.3 °F 69% 30.07 in 10.0 mi Calm Calm - N/A   Mostly Cloudy
5:35 AM 57.2 °F 47.7 °F 70% 30.07 in 10.0 mi East 3.5 mph - N/A   Mostly Cloudy
5:55 AM 57.2 °F 47.7 °F 70% 30.07 in 10.0 mi East 4.6 mph - N/A   Scattered Clouds
6:15 AM 56.7 °F 47.8 °F 72% 30.07 in 10.0 mi East 4.6 mph - N/A   Scattered Clouds
6:35 AM 57.0 °F 48.0 °F 72% 30.08 in 10.0 mi ESE 4.6 mph - N/A   Scattered Clouds
6:55 AM 57.2 °F 48.6 °F 73% 30.08 in 10.0 mi East 4.6 mph - N/A   Mostly Cloudy
7:15 AM 57.2 °F 49.1 °F 74% 30.08 in 10.0 mi East 3.5 mph - N/A   Scattered Clouds
7:35 AM 57.6 °F 49.5 °F 74% 30.08 in 10.0 mi ESE 5.8 mph - N/A   Clear
7:55 AM 58.3 °F 50.2 °F 74% 30.09 in 10.0 mi ESE 5.8 mph - N/A   Clear
8:15 AM 59.4 °F 51.1 °F 74% 30.09 in 10.0 mi ESE 5.8 mph - N/A   Clear
8:35 AM 61.5 °F 52.3 °F 72% 30.09 in 10.0 mi ESE 5.8 mph - N/A   Scattered Clouds
8:55 AM 63.1 °F 53.2 °F 70% 30.08 in 10.0 mi SE 5.8 mph - N/A   Scattered Clouds
9:15 AM 66.2 °F 54.3 °F 65% 30.08 in 10.0 mi SE 5.8 mph - N/A   Scattered Clouds
9:35 AM 65.8 °F 54.9 °F 68% 30.07 in 10.0 mi ESE 4.6 mph - N/A   Clear
9:55 AM 69.3 °F 55.4 °F 61% 30.07 in 10.0 mi ESE 10.4 mph - N/A   Clear
10:15 AM 70.7 °F 55.4 °F 58% 30.07 in 10.0 mi ESE 10.4 mph - N/A   Clear
10:35 AM 71.2 °F 55.6 °F 58% 30.06 in 10.0 mi ESE 8.1 mph - N/A   Clear
10:55 AM 71.8 °F 55.9 °F 57% 30.06 in 10.0 mi SE 11.5 mph - N/A   Clear
11:15 AM 72.1 °F 55.8 °F 56% 30.06 in 10.0 mi SE 10.4 mph - N/A   Clear
11:35 AM 73.9 °F 56.5 °F 54% 30.06 in 10.0 mi SE 10.4 mph - N/A   Clear
11:55 AM 74.3 °F 54.9 °F 51% 30.06 in 10.0 mi SSE 12.7 mph 21.9 mph N/A   Clear
12:15 PM 75.6 °F 55.9 °F 50% 30.06 in 10.0 mi SE 8.1 mph 16.1 mph N/A   Clear
12:35 PM 75.4 °F 55.0 °F 49% 30.05 in 10.0 mi SSE 16.1 mph 20.7 mph N/A   Scattered Clouds
12:55 PM 76.1 °F 55.2 °F 48% 30.05 in 10.0 mi South 12.7 mph 21.9 mph N/A   Scattered Clouds
1:15 PM 76.3 °F 54.5 °F 47% 30.04 in 10.0 mi South 15.0 mph 21.9 mph N/A   Scattered Clouds
1:35 PM 76.6 °F 52.9 °F 43% 30.04 in 10.0 mi SE 15.0 mph 23.0 mph N/A   Scattered Clouds
1:55 PM 77.9 °F 53.1 °F 42% 30.04 in 10.0 mi SSE 16.1 mph 21.9 mph N/A   Scattered Clouds
2:15 PM 76.8 °F 50.9 °F 40% 30.03 in 10.0 mi SSE 13.8 mph 24.2 mph N/A   Scattered Clouds
2:35 PM 77.2 °F 52.0 °F 41% 30.03 in 10.0 mi SSE 12.7 mph 23.0 mph N/A   Clear
2:55 PM 76.5 °F 51.1 °F 41% 30.03 in 10.0 mi SSE 17.3 mph 21.9 mph N/A   Clear
3:15 PM 76.6 °F 51.1 °F 41% 30.03 in 10.0 mi ESE 13.8 mph 18.4 mph N/A   Clear
3:35 PM 77.5 °F 50.7 °F 39% 30.03 in 10.0 mi ESE 11.5 mph 23.0 mph N/A   Clear
3:55 PM 77.7 °F 51.8 °F 40% 30.02 in 10.0 mi SSE 11.5 mph 21.9 mph N/A   Scattered Clouds
4:15 PM 78.3 °F 49.8 °F 37% 30.01 in 10.0 mi ESE 12.7 mph 19.6 mph N/A   Scattered Clouds
4:35 PM 78.3 °F 48.9 °F 36% 30.01 in 10.0 mi SSE 12.7 mph 20.7 mph N/A   Scattered Clouds
4:55 PM 76.3 °F 52.3 °F 43% 30.01 in 10.0 mi ESE 12.7 mph 20.7 mph N/A   Scattered Clouds
5:15 PM 76.5 °F 53.2 °F 44% 30.01 in 10.0 mi ESE 13.8 mph 21.9 mph N/A   Mostly Cloudy
5:35 PM 74.8 °F 53.6 °F 47% 30.01 in 10.0 mi ESE 15.0 mph 20.7 mph N/A   Scattered Clouds
5:55 PM 74.3 °F 52.9 °F 47% 30.01 in 10.0 mi ESE 10.4 mph - N/A   Scattered Clouds
6:15 PM 74.3 °F 51.4 °F 45% 30.01 in 10.0 mi SE 15.0 mph 21.9 mph N/A   Clear
6:35 PM 73.4 °F 49.5 °F 43% 30.02 in 10.0 mi ESE 11.5 mph 20.7 mph N/A   Clear
6:55 PM 72.5 °F 47.5 °F 41% 30.02 in 10.0 mi ESE 12.7 mph 17.3 mph N/A   Clear
7:15 PM 71.4 °F 46.8 °F 41% 30.02 in 10.0 mi ESE 10.4 mph 17.3 mph N/A   Clear
7:35 PM 70.5 °F 43.9 °F 38% 30.02 in 10.0 mi East 8.1 mph 16.1 mph N/A   Clear
7:55 PM 69.8 °F 41.5 °F 36% 30.03 in 10.0 mi East 8.1 mph - N/A   Clear
8:15 PM 68.9 °F 39.9 °F 35% 30.03 in 10.0 mi ESE 10.4 mph - N/A   Clear
8:35 PM 67.8 °F 39.4 °F 35% 30.03 in 10.0 mi East 8.1 mph - N/A   Clear
8:55 PM 67.3 °F 37.4 °F 33% 30.04 in 10.0 mi East 6.9 mph - N/A   Clear
9:15 PM 66.2 °F 36.5 °F 33% 30.04 in 10.0 mi East 6.9 mph - N/A   Clear
9:35 PM 65.3 °F 36.5 °F 34% 30.05 in 10.0 mi East 6.9 mph - N/A   Clear
9:55 PM 64.0 °F 37.0 °F 37% 30.05 in 10.0 mi East 4.6 mph - N/A   Clear
10:15 PM 63.5 °F 37.2 °F 38% 30.05 in 10.0 mi East 6.9 mph - N/A   Clear
10:35 PM 63.5 °F 36.9 °F 37% 30.05 in 10.0 mi East 6.9 mph - N/A   Clear
10:55 PM 63.0 °F 37.4 °F 39% 30.05 in 10.0 mi East 5.8 mph - N/A   Clear
11:15 PM 62.2 °F 37.9 °F 41% 30.04 in 10.0 mi East 5.8 mph - N/A   Clear
11:35 PM 61.7 °F 39.0 °F 43% 30.04 in 10.0 mi East 5.8 mph - N/A   Clear
11:55 PM 61.2 °F 39.6 °F 45% 30.04 in 10.0 mi East 5.8 mph - N/A   Clear